Simultaneous Nadir Overpasses (SNOs) Predictions

Prediction of SNOs between GOES-16 and METOP-B Satellite Orbit:

Table of predicted SNOs for the next 14.0 days since TLE Epoch: 11/24/2018
Index Date Time (GOES-16) GOES-16 Lat,Lon METOP-B Lat,Lon Distance(km) Time Diff (sec)
1 11/26/2018 02:30:09 0.01, -75.18 -0.01, -75.21 3.87 80
2 11/28/2018 14:28:24 -0.00, -75.19 -0.08, -74.78 47.13 80
3 11/30/2018 02:47:26 0.00, -75.19 -0.92, -79.38 477.09 80
4 12/01/2018 02:24:08 0.00, -75.19 0.19, -74.38 92.53 80
5 12/02/2018 14:43:01 0.00, -75.22 0.82, -78.95 424.72 80
6 12/03/2018 14:25:03 0.00, -75.23 -0.29, -73.95 145.46 80
7 12/05/2018 02:44:04 -0.01, -75.23 -0.77, -78.54 377.30 80
8 12/06/2018 02:20:46 -0.01, -75.25 0.40, -73.56 193.15 80
9 12/07/2018 14:39:39 0.01, -75.28 0.66, -78.11 323.11 80




NCC Satellite Simultaneous Nadir Overpasses (SNOs) Prediction Service
